• In Hungary
  • List of Countries
  • For 7 days
  • Water Temperature
  • Satellite Maps
  • Weather Map
  • News
  • Weather Widgets
  • user-avatar
    Login

    Hourly Weather Biancavilla

    Today, 22 June, Friday

    Time Temperature Precipitation Wind Pressure Humidity
    00:00 +21°C° 0 mm 1 mps 715 mmHg 78%
    01:00 +20°C° 0 mm 1 mps 715 mmHg 78%
    02:00 +20°C° 0 mm 1 mps 715 mmHg 79%
    03:00 +20°C° 0 mm 1 mps 715 mmHg 80%
    04:00 +19°C° 0 mm 1 mps 715 mmHg 80%
    05:00 +21°C° 0 mm 1 mps 715 mmHg 75%
    06:00 +22°C° 0 mm 1 mps 715 mmHg 70%
    07:00 +23°C° 0 mm 1 mps 715 mmHg 64%
    08:00 +24°C° 0 mm 1 mps 715 mmHg 59%
    09:00 +26°C° 0 mm 2 mps 716 mmHg 54%
    10:00 +27°C° 0 mm 2 mps 716 mmHg 49%
    11:00 +27°C° 0.2 mm 2 mps 716 mmHg 48%
    12:00 +28°C° 0.2 mm 3 mps 716 mmHg 47%
    13:00 +28°C° 0.2 mm 4 mps 716 mmHg 47%
    14:00 +28°C° 0.1 mm 3 mps 715 mmHg 48%
    15:00 +27°C° 0.1 mm 3 mps 715 mmHg 49%
    16:00 +27°C° 0.1 mm 3 mps 714 mmHg 50%
    17:00 +26°C° 0 mm 3 mps 714 mmHg 54%
    18:00 +25°C° 0 mm 2 mps 714 mmHg 58%
    19:00 +24°C° 0 mm 2 mps 714 mmHg 62%
    20:00 +23°C° 0 mm 2 mps 714 mmHg 65%
    21:00 +21°C° 0 mm 2 mps 714 mmHg 68%
    22:00 +21°C° 0 mm 1 mps 714 mmHg 70%
    23:00 +21°C° 0 mm 1 mps 714 mmHg 71%

    Tomorrow, 23 June, Saturday

    Time Temperature Precipitation Wind Pressure Humidity
    00:00 +21°C° 0 mm 1 mps 714 mmHg 71%
    01:00 +20°C° 0 mm 1 mps 714 mmHg 71%
    02:00 +20°C° 0 mm 1 mps 714 mmHg 70%
    03:00 +20°C° 0 mm 1 mps 714 mmHg 69%
    04:00 +20°C° 0 mm 1 mps 714 mmHg 68%
    05:00 +21°C° 0 mm 1 mps 714 mmHg 63%
    06:00 +22°C° 0 mm 1 mps 714 mmHg 58%
    07:00 +24°C° 0 mm 1 mps 714 mmHg 53%
    08:00 +25°C° 0 mm 1 mps 715 mmHg 49%
    09:00 +27°C° 0 mm 1 mps 715 mmHg 44%
    10:00 +28°C° 0 mm 2 mps 715 mmHg 39%
    11:00 +29°C° 0 mm 2 mps 715 mmHg 39%
    12:00 +29°C° 0 mm 3 mps 715 mmHg 38%
    13:00 +30°C° 0 mm 3 mps 715 mmHg 37%
    14:00 +29°C° 0 mm 3 mps 715 mmHg 39%
    15:00 +29°C° 0 mm 3 mps 715 mmHg 41%
    16:00 +28°C° 0 mm 4 mps 714 mmHg 43%
    17:00 +27°C° 0 mm 3 mps 714 mmHg 48%
    18:00 +26°C° 0 mm 3 mps 714 mmHg 54%
    19:00 +24°C° 0 mm 3 mps 714 mmHg 60%
    20:00 +23°C° 0 mm 2 mps 714 mmHg 66%
    21:00 +21°C° 0 mm 2 mps 714 mmHg 72%
    22:00 +20°C° 0 mm 2 mps 714 mmHg 78%
    23:00 +20°C° 0 mm 2 mps 714 mmHg 80%

    Day after tomorrow, 24 June, Sunday

    Time Temperature Precipitation Wind Pressure Humidity
    00:00 +19°C° 0 mm 2 mps 714 mmHg 83%
    01:00 +19°C° 0 mm 2 mps 714 mmHg 85%
    02:00 +19°C° 0.1 mm 2 mps 714 mmHg 86%
    03:00 +19°C° 0.1 mm 2 mps 713 mmHg 87%
    04:00 +19°C° 0.1 mm 2 mps 713 mmHg 88%
    05:00 +19°C° 0.1 mm 2 mps 713 mmHg 84%
    06:00 +20°C° 0.1 mm 3 mps 714 mmHg 80%
    07:00 +21°C° 0.1 mm 3 mps 714 mmHg 76%
    08:00 +21°C° 0.3 mm 3 mps 714 mmHg 71%
    09:00 +22°C° 0.3 mm 3 mps 714 mmHg 66%
    10:00 +24°C° 0.3 mm 3 mps 714 mmHg 61%
    11:00 +24°C° 0.4 mm 3 mps 714 mmHg 60%
    12:00 +25°C° 0.4 mm 3 mps 714 mmHg 58%
    13:00 +25°C° 0.4 mm 3 mps 714 mmHg 56%
    14:00 +25°C° 0.4 mm 3 mps 714 mmHg 57%
    15:00 +25°C° 0.4 mm 3 mps 714 mmHg 57%
    16:00 +25°C° 0.4 mm 3 mps 713 mmHg 57%
    17:00 +24°C° 0.2 mm 2 mps 713 mmHg 60%
    18:00 +23°C° 0.2 mm 2 mps 713 mmHg 64%
    19:00 +21°C° 0.2 mm 2 mps 713 mmHg 67%
    20:00 +22°C° 0.3 mm 1 mps 713 mmHg 70%
    21:00 +21°C° 0.3 mm 1 mps 713 mmHg 73%
    22:00 +20°C° 0.3 mm 1 mps 713 mmHg 75%
    23:00 +20°C° 1 mm 1 mps 713 mmHg 76%

    25 June, Monday

    Time Temperature Precipitation Wind Pressure Humidity
    00:00 +20°C° 1 mm 1 mps 713 mmHg 77%
    01:00 +19°C° 1 mm 1 mps 712 mmHg 78%
    02:00 +19°C° 0.8 mm 1 mps 712 mmHg 79%
    03:00 +19°C° 0.8 mm 1 mps 712 mmHg 79%
    04:00 +19°C° 0.8 mm 1 mps 712 mmHg 79%
    05:00 +19°C° 0.8 mm 1 mps 712 mmHg 77%
    06:00 +18°C° 0.8 mm 2 mps 712 mmHg 75%
    07:00 +19°C° 0.8 mm 2 mps 712 mmHg 74%
    08:00 +20°C° 0.5 mm 2 mps 712 mmHg 69%
    09:00 +21°C° 0.5 mm 2 mps 712 mmHg 64%
    10:00 +23°C° 0.5 mm 2 mps 713 mmHg 60%
    11:00 +23°C° 0.5 mm 2 mps 713 mmHg 58%
    12:00 +24°C° 0.5 mm 2 mps 713 mmHg 56%
    13:00 +24°C° 0.5 mm 3 mps 713 mmHg 54%
    14:00 +24°C° 0.5 mm 3 mps 713 mmHg 53%
    15:00 +24°C° 0.5 mm 3 mps 713 mmHg 53%
    16:00 +24°C° 0.5 mm 3 mps 712 mmHg 52%
    17:00 +22°C° 0.1 mm 3 mps 712 mmHg 54%
    18:00 +21°C° 0.1 mm 2 mps 713 mmHg 56%
    19:00 +20°C° 0.1 mm 2 mps 713 mmHg 59%
    20:00 +19°C° 0 mm 2 mps 713 mmHg 61%
    21:00 +18°C° 0 mm 2 mps 713 mmHg 63%
    22:00 +18°C° 0 mm 2 mps 713 mmHg 66%
    23:00 +17°C° 0 mm 2 mps 713 mmHg 68%

    26 June, Tuesday

    Time Temperature Precipitation Wind Pressure Humidity
    00:00 +17°C° 0 mm 3 mps 712 mmHg 71%
    01:00 +17°C° 0 mm 3 mps 712 mmHg 74%
    02:00 +17°C° 0 mm 3 mps 712 mmHg 75%
    03:00 +17°C° 0 mm 3 mps 712 mmHg 76%
    04:00 +17°C° 0 mm 3 mps 711 mmHg 78%
    05:00 +18°C° 0 mm 3 mps 711 mmHg 72%
    06:00 +19°C° 0 mm 3 mps 712 mmHg 67%
    07:00 +20°C° 0 mm 3 mps 712 mmHg 61%
    08:00 +21°C° 0 mm 4 mps 712 mmHg 55%
    09:00 +23°C° 0 mm 4 mps 712 mmHg 48%
    10:00 +25°C° 0 mm 4 mps 712 mmHg 41%
    11:00 +26°C° 0 mm 4 mps 712 mmHg 40%
    12:00 +26°C° 0 mm 4 mps 712 mmHg 39%
    13:00 +27°C° 0 mm 4 mps 712 mmHg 38%
    14:00 +26°C° 0 mm 4 mps 712 mmHg 40%
    15:00 +26°C° 0 mm 5 mps 712 mmHg 42%
    16:00 +25°C° 0 mm 5 mps 712 mmHg 44%
    17:00 +23°C° 0 mm 4 mps 712 mmHg 48%
    18:00 +22°C° 0 mm 4 mps 712 mmHg 53%
    19:00 +21°C° 0 mm 3 mps 712 mmHg 58%
    20:00 +20°C° 0 mm 3 mps 712 mmHg 62%
    21:00 +19°C° 0 mm 3 mps 712 mmHg 65%
    22:00 +18°C° 0 mm 2 mps 712 mmHg 69%
    23:00 +18°C° 0 mm 2 mps 712 mmHg 70%

    27 June, Wednesday

    Time Temperature Precipitation Wind Pressure Humidity
    00:00 +18°C° 0 mm 2 mps 712 mmHg 71%
    01:00 +18°C° 0 mm 2 mps 712 mmHg 73%
    02:00 +18°C° 0 mm 2 mps 711 mmHg 74%
    03:00 +17°C° 0 mm 2 mps 711 mmHg 76%
    04:00 +17°C° 0 mm 2 mps 711 mmHg 78%
    05:00 +18°C° 0 mm 2 mps 711 mmHg 73%
    06:00 +19°C° 0 mm 2 mps 712 mmHg 69%
    07:00 +20°C° 0 mm 2 mps 712 mmHg 64%
    08:00 +21°C° 0 mm 3 mps 712 mmHg 59%
    09:00 +24°C° 0 mm 3 mps 712 mmHg 53%
    10:00 +25°C° 0 mm 3 mps 712 mmHg 48%
    11:00 +26°C° 0 mm 3 mps 712 mmHg 46%
    12:00 +26°C° 0 mm 4 mps 712 mmHg 45%
    13:00 +27°C° 0 mm 4 mps 712 mmHg 43%
    14:00 +27°C° 0 mm 3 mps 712 mmHg 45%
    15:00 +26°C° 0 mm 3 mps 712 mmHg 47%
    16:00 +26°C° 0 mm 3 mps 712 mmHg 49%
    17:00 +25°C° 0 mm 3 mps 712 mmHg 53%
    18:00 +24°C° 0 mm 2 mps 712 mmHg 57%
    19:00 +23°C° 0 mm 2 mps 712 mmHg 60%
    20:00 +21°C° 0 mm 2 mps 713 mmHg 64%
    21:00 +21°C° 0 mm 2 mps 713 mmHg 67%
    22:00 +20°C° 0 mm 2 mps 713 mmHg 71%
    23:00 +19°C° 0 mm 2 mps 713 mmHg 72%
    Show more